N4BBA Weather Reports


Display with metric or nautical units.
time (UTC)temp
F
wind
direction
speed
MPH
gust
MPH
rain 1hr
in
rain 24hr
in
rain mn
in
humidity
%
barometer
mb
20260510195444 84 220 4.0 7.0 0.00 0.00 0.00 43 1013.2
20260510194945 84 201 4.0 4.0 0.00 0.00 0.00 43 1013.1
20260510194441 84 273 4.0 4.0 0.00 0.00 0.00 42 1013.2
20260510193936 84 72 2.0 3.0 0.00 0.00 0.00 44 1013.2
20260510193432 84 240 2.0 7.0 0.00 0.00 0.00 43 1013.4
20260510192928 84 258 4.0 6.0 0.00 0.00 0.00 44 1013.2
20260510192423 85 221 4.0 4.0 0.00 0.00 0.00 45 1013.3
20260510191919 84 177 3.0 4.0 0.00 0.00 0.00 44 1013.4
20260510191415 85 226 2.0 3.0 0.00 0.00 0.00 46 1013.6
20260510190913 83 164 1.0 3.0 0.00 0.00 0.00 47 1013.8
20260510190410 80 89 1.0 1.0 0.00 0.00 0.00 52 1013.8
20260510185906 81 293 2.0 3.0 0.00 0.00 0.00 51 1013.8
20260510185404 81 139 1.0 1.0 0.00 0.00 0.00 53 1013.9
20260510184901 81 156 1.0 2.0 0.00 0.00 0.00 55 1014.1
20260510184358 80 125 1.0 2.0 0.00 0.00 0.00 54 1013.9
20260510183857 80 97 0.0 1.0 0.00 0.00 0.00 53 1013.9
20260510183354 80 104 1.0 1.0 0.00 0.00 0.00 55 1013.9
20260510182849 81 340 2.0 3.0 0.00 0.00 0.00 50 1013.9
20260510182346 81 29 2.0 3.0 0.00 0.00 0.00 51 1014.0
20260510181842 81 242 2.0 3.0 0.00 0.00 0.00 52 1014.0
20260510181340 83 226 5.0 7.0 0.00 0.00 0.00 51 1014.1
20260510180835 82 222 4.0 4.0 0.00 0.00 0.00 52 1014.0
20260510180333 82 155 2.0 3.0 0.00 0.00 0.00 54 1014.1
20260510175830 80 122 0.0 1.0 0.00 0.00 0.00 56 1014.0
20260510175325 82 297 2.0 3.0 0.00 0.00 0.00 54 1014.1
20260510174822 82 163 1.0 4.0 0.00 0.00 0.00 52 1014.2
20260510174320 82 122 4.0 4.0 0.00 0.00 0.00 53 1014.1
20260510173816 82 231 2.0 6.0 0.00 0.00 0.00 53 1014.1
20260510173311 82 27 2.0 3.0 0.00 0.00 0.00 55 1014.2
20260510172808 81 297 2.0 2.0 0.00 0.00 0.00 55 1014.2
20260510172306 81 67 2.0 4.0 0.00 0.00 0.00 55 1014.2
20260510171801 82 70 1.0 4.0 0.00 0.00 0.00 56 1014.3
20260510171258 83 127 2.0 4.0 0.00 0.00 0.00 55 1014.4
20260510170755 82 185 1.0 6.0 0.00 0.00 0.00 55 1014.5
20260510170251 83 259 4.0 6.0 0.00 0.00 0.00 54 1014.3
20260510165746 82 146 1.0 3.0 0.00 0.00 0.00 54 1014.4
20260510165242 82 8 3.0 6.0 0.00 0.00 0.00 54 1014.3
20260510164740 80 107 2.0 3.0 0.00 0.00 0.00 54 1014.4
20260510164238 80 223 0.0 2.0 0.00 0.00 0.00 53 1014.6
20260510163738 80 130 2.0 3.0 0.00 0.00 0.00 56 1014.4
20260510163234 81 147 4.0 6.0 0.00 0.00 0.00 54 1014.4
20260510162733 82 160 1.0 6.0 0.00 0.00 0.00 53 1014.3
20260510162231 82 331 4.0 4.0 0.00 0.00 0.00 52 1014.5
20260510161727 80 124 0.0 2.0 0.00 0.00 0.00 52 1014.6
20260510161223 80 93 4.0 7.0 0.00 0.00 0.00 55 1014.6
20260510160720 80 184 2.0 4.0 0.00 0.00 0.00 55 1014.6
20260510160215 80 140 3.0 6.0 0.00 0.00 0.00 54 1014.6
20260510155711 81 46 1.0 4.0 0.00 0.00 0.00 57 1014.7
20260510155207 81 57 1.0 2.0 0.00 0.00 0.00 62 1014.8
20260510154703 80 119 0.0 2.0 0.00 0.00 0.00 60 1014.7
20260510154159 80 110 0.0 2.0 0.00 0.00 0.00 60 1014.8
20260510153654 79 10 2.0 2.0 0.00 0.00 0.00 62 1015.0
20260510153151 78 179 1.0 2.0 0.00 0.00 0.00 63 1014.7
20260510152648 78 304 3.0 4.0 0.00 0.00 0.00 63 1014.8
20260510152144 78 123 1.0 4.0 0.00 0.00 0.00 64 1014.5
20260510151640 79 37 3.0 4.0 0.00 0.00 0.00 65 1014.7
20260510151139 78 209 1.0 2.0 0.00 0.00 0.00 65 1014.8
20260510150634 77 106 0.0 2.0 0.00 0.00 0.00 67 1014.7
20260510150130 77 187 1.0 4.0 0.00 0.00 0.00 68 1014.8
20260510145626 78 311 1.0 3.0 0.00 0.00 0.00 71 1014.9
20260510145123 77 154 3.0 3.0 0.00 0.00 0.00 71 1014.7
20260510144619 77 161 2.0 2.0 0.00 0.00 0.00 72 1014.6
20260510144115 76 137 2.0 2.0 0.00 0.00 0.00 73 1014.5
20260510143611 76 202 2.0 3.0 0.00 0.00 0.00 73 1014.5
20260510143107 76 131 1.0 4.0 0.00 0.00 0.00 75 1014.6
20260510142604 75 96 1.0 3.0 0.00 0.00 0.00 75 1014.8
20260510142101 76 55 1.0 3.0 0.00 0.00 0.00 77 1014.7
20260510141557 76 214 1.0 2.0 0.00 0.00 0.00 78 1014.6
20260510141056 74 65 0.0 1.0 0.00 0.00 0.00 79 1014.6
20260510140551 74 91 1.0 3.0 0.00 0.00 0.00 80 1014.7
20260510140051 74 80 1.0 4.0 0.00 0.00 0.00 81 1014.7
20260510135547 73 79 1.0 3.0 0.00 0.00 0.00 82 1014.8
20260510135043 73 39 3.0 3.0 0.00 0.00 0.00 84 1014.8
20260510134540 73 88 1.0 3.0 0.00 0.00 0.00 85 1014.6
20260510134037 72 249 3.0 3.0 0.00 0.00 0.00 86 1014.6
20260510133533 72 209 2.0 4.0 0.00 0.00 0.00 87 1014.6
20260510133029 72 57 1.0 3.0 0.00 0.00 0.00 89 1014.4
20260510132526 72 153 2.0 2.0 0.00 0.00 0.00 90 1014.3
20260510132023 71 200 2.0 3.0 0.00 0.00 0.00 92 1014.5
20260510131521 70 211 3.0 4.0 0.00 0.00 0.00 93 1014.5
20260510131018 70 297 2.0 4.0 0.00 0.00 0.00 94 1014.6
20260510130514 70 259 2.0 4.0 0.00 0.00 0.00 95 1014.4
20260510130012 69 203 2.0 3.0 0.00 0.00 0.00 96 1014.5
20260510125508 69 157 2.0 3.0 0.00 0.00 0.00 97 1014.3
20260510125004 68 219 4.0 4.0 0.00 0.00 0.00 97 1014.4
20260510124500 68 301 2.0 4.0 0.00 0.00 0.00 98 1014.3
20260510123957 67 313 2.0 4.0 0.00 0.00 0.00 98 1014.3
20260510123453 66 242 1.0 2.0 0.00 0.00 0.00 98 1014.1
20260510122949 65 220 3.0 3.0 0.00 0.00 0.00 99 1014.2
20260510122445 64 155 1.0 2.0 0.00 0.00 0.00 99 1014.1
20260510121941 64 201 3.0 3.0 0.00 0.00 0.00 99 1014.2
20260510121438 63 174 1.0 2.0 0.00 0.00 0.00 99 1014.0
20260510120936 63 176 1.0 1.0 0.00 0.00 0.00 99 1014.0
20260510120433 63 180 0.0 0.0 0.00 0.00 0.00 99 1014.0
20260510115928 62 131 0.0 0.0 0.00 0.00 0.00 99 1014.0
20260510115426 62 115 0.0 0.0 0.00 0.00 0.00 99 1013.9
20260510114921 61 115 0.0 0.0 0.00 0.00 0.00 99 1013.8
20260510114419 61 115 0.0 0.0 0.00 0.00 0.00 99 1013.7
20260510113914 61 112 0.0 0.0 0.00 0.00 0.00 99 1013.8
20260510113410 61 118 0.0 0.0 0.00 0.00 0.00 99 1013.9
20260510112907 60 118 0.0 0.0 0.00 0.00 0.00 99 1013.6
20260510112405 60 111 0.0 0.0 0.00 0.00 0.00 99 1013.7
20260510111901 59 107 0.0 0.0 0.00 0.00 0.00 99 1013.3
20260510111357 59 107 0.0 0.0 0.00 0.00 0.00 99 1013.4
20260510110852 59 112 0.0 0.0 0.00 0.00 0.00 99 1013.5
20260510110349 59 116 0.0 0.0 0.00 0.00 0.00 99 1013.3
20260510105845 59 113 0.0 0.0 0.00 0.00 0.00 99 1013.3
20260510105345 59 113 0.0 0.0 0.00 0.00 0.00 99 1013.4
20260510104841 59 112 0.0 0.0 0.00 0.00 0.00 99 1013.2
20260510104338 59 114 0.0 0.0 0.00 0.00 0.00 99 1013.1
20260510103834 59 114 0.0 0.0 0.00 0.00 0.00 99 1013.1
20260510103332 59 109 0.0 0.0 0.00 0.00 0.00 99 1013.0
20260510102827 59 109 0.0 0.0 0.00 0.00 0.00 99 1012.7
20260510102323 59 116 0.0 0.0 0.00 0.00 0.00 99 1012.8
20260510101820 59 115 0.0 0.0 0.00 0.00 0.00 99 1012.6
20260510101318 59 119 0.0 0.0 0.00 0.00 0.00 99 1012.7
20260510100814 59 116 0.0 0.0 0.00 0.00 0.00 99 1012.6
20260510100312 59 115 0.0 0.0 0.00 0.00 0.00 99 1012.3
20260510095808 59 118 0.0 0.0 0.00 0.00 0.00 99 1012.3
20260510095305 58 111 0.0 0.0 0.00 0.00 0.00 99 1012.4
20260510094803 59 106 0.0 0.0 0.00 0.00 0.00 99 1012.2
20260510094258 59 103 0.0 0.0 0.00 0.00 0.00 99 1012.2
20260510093754 59 123 0.0 0.0 0.00 0.00 0.00 99 1012.2
20260510093251 59 123 0.0 0.0 0.00 0.00 0.00 99 1012.1
20260510092747 58 123 0.0 0.0 0.00 0.00 0.00 99 1012.2
20260510092243 58 123 0.0 0.0 0.00 0.00 0.00 98 1012.2
20260510091739 58 118 0.0 0.0 0.00 0.00 0.00 98 1011.9
20260510091236 58 118 0.0 0.0 0.00 0.00 0.00 98 1011.9
20260510090732 58 118 0.0 0.0 0.00 0.00 0.00 98 1012.0
20260510090230 58 122 0.0 0.0 0.00 0.00 0.00 98 1012.0
20260510085725 58 122 0.0 0.0 0.00 0.00 0.00 98 1011.9
20260510085220 58 116 0.0 0.0 0.00 0.00 0.00 98 1011.8
20260510084716 58 115 0.0 0.0 0.00 0.00 0.00 98 1011.6
20260510084213 58 116 0.0 0.0 0.00 0.00 0.00 98 1011.8
20260510083709 58 124 0.0 0.0 0.00 0.00 0.00 98 1011.6
20260510083207 58 121 0.0 0.0 0.00 0.00 0.00 98 1011.6
20260510082702 58 121 0.0 0.0 0.00 0.00 0.00 98 1011.6
20260510082159 58 105 0.0 0.0 0.00 0.00 0.00 98 1011.6
20260510081659 58 101 0.0 0.0 0.00 0.00 0.00 98 1011.6
20260510081155 58 124 0.0 0.0 0.00 0.00 0.00 98 1011.6
20260510080654 58 132 0.0 0.0 0.00 0.00 0.00 98 1011.7
20260510080152 59 118 0.0 0.0 0.00 0.00 0.00 98 1011.4
20260510075648 58 117 0.0 0.0 0.00 0.00 0.00 98 1011.3
20260510075146 58 117 0.0 0.0 0.00 0.00 0.00 98 1011.4
20260510074643 58 113 0.0 0.0 0.00 0.00 0.00 98 1011.3
20260510074138 58 111 0.0 0.0 0.00 0.00 0.00 98 1011.2
20260510073635 58 110 0.0 0.0 0.00 0.00 0.00 98 1011.4
20260510073132 58 113 0.0 0.0 0.00 0.00 0.00 98 1011.4
20260510072628 58 114 0.0 0.0 0.00 0.00 0.00 98 1011.3
20260510072124 58 115 0.0 0.0 0.00 0.00 0.00 98 1011.4
20260510071620 58 115 0.0 0.0 0.00 0.00 0.00 98 1011.4
20260510071118 59 110 0.0 0.0 0.00 0.00 0.00 98 1011.4
20260510070615 59 102 0.0 0.0 0.00 0.00 0.00 98 1011.3
20260510070112 59 115 0.0 0.0 0.00 0.00 0.00 98 1011.4
20260510065608 59 121 0.0 0.0 0.00 0.00 0.00 98 1011.6
20260510065104 59 121 0.0 0.0 0.00 0.00 0.00 98 1011.6
20260510064601 59 116 0.0 0.0 0.00 0.00 0.00 98 1011.4
20260510064058 59 116 0.0 0.0 0.00 0.00 0.00 98 1011.5
20260510063555 59 121 0.0 0.0 0.00 0.00 0.00 98 1011.5
20260510063052 59 125 0.0 0.0 0.00 0.00 0.00 98 1011.4
20260510062548 59 123 0.0 0.0 0.00 0.00 0.00 98 1011.4
20260510062043 59 112 0.0 0.0 0.00 0.00 0.00 98 1011.4
20260510061540 59 112 0.0 0.0 0.00 0.00 0.00 98 1011.3
20260510061036 59 112 0.0 0.0 0.00 0.00 0.00 98 1011.3
20260510060533 59 109 0.0 0.0 0.00 0.00 0.00 97 1011.3
20260510060029 60 109 0.0 0.0 0.00 0.00 0.00 97 1011.5
20260510055525 60 105 0.0 0.0 0.00 0.00 0.00 97 1011.4
20260510055024 60 124 0.0 0.0 0.00 0.00 0.00 97 1011.7
20260510054519 60 130 0.0 0.0 0.00 0.00 0.00 97 1011.7
20260510054014 60 123 0.0 0.0 0.00 0.00 0.00 97 1011.8
20260510053509 60 118 0.0 0.0 0.00 0.00 0.00 97 1011.8
20260510053006 60 118 0.0 0.0 0.00 0.00 0.00 97 1011.7
20260510052502 60 119 0.0 0.0 0.00 0.00 0.00 97 1011.8
20260510051958 60 122 0.0 0.0 0.00 0.00 0.00 97 1011.9
20260510051454 60 114 0.0 0.0 0.00 0.00 0.00 97 1011.8
20260510050950 60 112 0.0 0.0 0.00 0.00 0.00 97 1011.8
20260510050448 60 111 0.0 0.0 0.00 0.00 0.00 97 1011.7
20260510045945 60 119 0.0 0.0 0.00 0.00 0.00 97 1012.0
20260510045442 61 120 0.0 0.0 0.00 0.00 0.00 97 1012.0
20260510044939 61 127 0.0 0.0 0.00 0.00 0.00 97 1012.0
20260510044436 61 126 0.0 0.0 0.00 0.00 0.00 97 1012.1
20260510043932 61 126 0.0 0.0 0.00 0.00 0.00 97 1011.9
20260510043428 61 126 0.0 0.0 0.00 0.00 0.00 97 1012.1
20260510042926 61 126 0.0 0.0 0.00 0.00 0.00 97 1012.1
20260510042422 61 123 0.0 0.0 0.00 0.00 0.00 97 1012.0
20260510041918 60 123 0.0 0.0 0.00 0.00 0.00 97 1011.9
20260510041415 60 123 0.0 0.0 0.00 0.00 0.00 97 1011.8
20260510040913 61 123 0.0 0.0 0.00 0.00 0.00 96 1011.7
20260510040410 61 123 0.0 0.0 0.00 0.00 0.00 96 1011.8
20260510035905 61 122 0.0 0.0 0.00 0.00 0.00 96 1011.7
20260510035402 61 120 0.0 0.0 0.00 0.00 0.00 96 1011.9
20260510034856 61 123 0.0 0.0 0.00 0.00 0.00 96 1011.7
20260510034355 61 123 0.0 0.0 0.00 0.00 0.00 96 1011.8
20260510033851 62 123 0.0 0.0 0.00 0.00 0.00 96 1011.8
20260510033348 61 122 0.0 0.0 0.00 0.00 0.00 96 1011.7
20260510032844 62 122 0.0 0.0 0.00 0.00 0.00 96 1011.6
20260510032341 62 125 0.0 0.0 0.00 0.00 0.00 96 1011.6
20260510031837 61 122 0.0 0.0 0.00 0.00 0.00 96 1011.4
20260510031332 62 119 0.0 0.0 0.00 0.00 0.00 96 1011.3
20260510030832 62 119 0.0 0.0 0.00 0.00 0.00 96 1011.4
20260510030329 62 124 0.0 0.0 0.00 0.00 0.00 96 1011.4
20260510025826 62 129 0.0 0.0 0.00 0.00 0.00 96 1011.5
20260510025324 62 139 0.0 0.0 0.00 0.00 0.00 95 1011.5
20260510024820 62 117 0.0 0.0 0.00 0.00 0.00 95 1011.3
20260510024317 62 115 0.0 0.0 0.00 0.00 0.00 95 1011.3
20260510023813 62 112 0.0 0.0 0.00 0.00 0.00 95 1011.3
20260510023310 62 117 0.0 0.0 0.00 0.00 0.00 95 1011.3
20260510022807 63 126 0.0 0.0 0.00 0.00 0.00 95 1011.3
20260510022307 63 127 0.0 0.0 0.00 0.00 0.00 95 1011.5
20260510021806 62 121 0.0 0.0 0.00 0.00 0.00 95 1011.2
20260510021304 63 121 0.0 0.0 0.00 0.00 0.00 94 1011.2
20260510020759 63 121 0.0 0.0 0.00 0.00 0.00 94 1011.1
20260510020300 63 116 0.0 0.0 0.00 0.00 0.00 94 1011.0
20260510015756 63 109 0.0 0.0 0.00 0.00 0.00 94 1011.1
20260510015252 63 109 0.0 0.0 0.00 0.00 0.00 94 1011.2
20260510014747 63 125 0.0 0.0 0.00 0.00 0.00 94 1011.0
20260510014245 63 125 0.0 0.0 0.00 0.00 0.00 93 1010.9
20260510013740 64 131 0.0 0.0 0.00 0.00 0.00 93 1010.9
20260510013236 64 127 0.0 0.0 0.00 0.00 0.00 93 1010.6
20260510012731 64 124 0.0 0.0 0.00 0.00 0.00 93 1010.6
20260510012227 64 127 0.0 0.0 0.00 0.00 0.00 93 1010.7
20260510011727 64 136 0.0 0.0 0.00 0.00 0.00 92 1010.7
20260510011222 64 120 0.0 0.0 0.00 0.00 0.00 92 1010.6
20260510010719 65 115 0.0 0.0 0.00 0.00 0.00 92 1010.7
20260510010215 65 120 0.0 0.0 0.00 0.00 0.00 92 1010.6
20260510005712 65 115 0.0 0.0 0.00 0.00 0.00 91 1010.8
20260510005208 65 115 0.0 0.0 0.00 0.00 0.00 91 1010.6
20260510004707 66 110 0.0 0.0 0.00 0.00 0.00 91 1010.5
20260510004205 66 119 0.0 0.0 0.00 0.00 0.00 90 1010.3
20260510003702 66 115 0.0 0.0 0.00 0.00 0.00 90 1010.3
20260510003158 66 116 0.0 0.0 0.00 0.00 0.00 89 1010.2
20260510002657 66 116 0.0 0.0 0.00 0.00 0.00 89 1010.2
20260510002154 67 117 0.0 0.0 0.00 0.00 0.00 89 1010.3
20260510001651 67 113 0.0 0.0 0.00 0.00 0.00 88 1010.6
20260510001150 68 113 0.0 0.0 0.00 0.00 0.00 88 1010.2
20260510000650 68 121 0.0 0.0 0.00 0.00 0.00 87 1010.4
20260510000148 68 108 0.0 0.0 0.00 0.00 0.00 87 1010.2
20260509235644 69 96 0.0 0.0 0.00 0.00 0.00 86 1010.1
20260509235141 69 107 0.0 0.0 0.00 0.00 0.00 85 1010.0
20260509234637 70 110 0.0 0.0 0.00 0.00 0.00 85 1010.1
20260509234135 70 117 0.0 0.0 0.00 0.00 0.00 84 1010.1
20260509233633 71 115 0.0 0.0 0.00 0.00 0.00 83 1009.8
20260509233130 71 116 0.0 0.0 0.00 0.00 0.00 82 1009.8
20260509232625 71 326 0.0 0.0 0.00 0.00 0.00 82 1009.7
20260509232123 72 103 0.0 0.0 0.00 0.00 0.00 81 1009.5
20260509231619 72 103 0.0 0.0 0.00 0.00 0.00 80 1009.7
20260509231117 73 103 0.0 0.0 0.00 0.00 0.00 79 1009.6
20260509230614 73 107 0.0 0.0 0.00 0.00 0.00 78 1009.6
20260509230111 73 134 0.0 0.0 0.00 0.00 0.00 77 1009.4
20260509225606 73 155 1.0 3.0 0.00 0.00 0.00 76 1009.5
20260509225102 74 195 2.0 3.0 0.00 0.00 0.00 75 1009.6
20260509224557 74 138 2.0 2.0 0.00 0.00 0.00 75 1009.5
20260509224055 73 138 0.0 2.0 0.00 0.00 0.00 76 1009.4
20260509223552 73 152 2.0 3.0 0.00 0.00 0.00 76 1009.5
20260509223049 74 160 1.0 3.0 0.00 0.00 0.00 75 1009.5
20260509222545 74 150 1.0 2.0 0.00 0.00 0.00 75 1009.4
20260509222041 74 144 2.0 4.0 0.00 0.00 0.00 75 1009.4
20260509221537 74 207 3.0 3.0 0.00 0.00 0.00 75 1009.3
20260509221033 74 170 2.0 4.0 0.00 0.00 0.00 75 1009.4
20260509220529 74 167 2.0 2.0 0.00 0.00 0.00 74 1009.7
20260509220026 74 181 3.0 4.0 0.00 0.00 0.00 74 1009.5
20260509215521 74 202 2.0 4.0 0.00 0.00 0.00 75 1009.7
20260509215019 74 173 2.0 4.0 0.00 0.00 0.00 75 1009.6
20260509214516 74 201 3.0 4.0 0.00 0.00 0.00 74 1009.7
20260509214013 73 137 1.0 3.0 0.00 0.00 0.00 75 1009.4
20260509213508 73 163 3.0 8.0 0.00 0.00 0.00 74 1009.4
20260509213006 74 265 4.0 6.0 0.00 0.00 0.00 74 1009.7
20260509212503 74 281 2.0 3.0 0.00 0.00 0.00 74 1009.4
20260509211959 74 203 3.0 4.0 0.00 0.00 0.00 74 1009.6
20260509211455 74 230 4.0 6.0 0.00 0.00 0.00 73 1009.5
20260509210952 74 193 0.0 2.0 0.00 0.00 0.00 74 1009.3
20260509210449 74 192 1.0 4.0 0.00 0.00 0.00 74 1009.3
20260509205944 74 130 2.0 3.0 0.00 0.00 0.00 74 1009.4
20260509205439 74 173 2.0 4.0 0.00 0.00 0.00 73 1009.3
20260509204935 74 231 6.0 7.0 0.00 0.00 0.00 73 1009.4
20260509204431 74 178 1.0 2.0 0.00 0.00 0.00 74 1009.2
20260509203928 73 180 2.0 3.0 0.00 0.00 0.00 74 1009.5
20260509203424 73 258 4.0 6.0 0.00 0.00 0.00 73 1009.5
20260509202922 73 260 4.0 4.0 0.00 0.00 0.00 74 1009.4
20260509202417 72 199 1.0 3.0 0.00 0.00 0.00 74 1009.6
20260509201913 72 178 3.0 4.0 0.00 0.00 0.00 75 1009.7
20260509201408 72 170 2.0 3.0 0.00 0.00 0.00 75 1009.7
20260509200906 72 204 2.0 6.0 0.00 0.00 0.00 74 1009.7
20260509200405 72 149 2.0 3.0 0.00 0.00 0.00 74 1010.0
20260509195902 72 212 3.0 3.0 0.00 0.00 0.00 74 1009.8